Date,TemperatureHighF,TemperatureAvgF,TemperatureLowF,DewpointHighF,DewpointAvgF,DewpointLowF,HumidityHigh,HumidityAvg,HumidityLow,PressureMaxIn,PressureMinIn,WindSpeedMaxMPH,WindSpeedAvgMPH,GustSpeedMaxMPH,PrecipitationSumIn
2013-1-1,35.4,29.1,21.0,32.1,21.2,5.3,97,74,48,32.27,32.27,0,0,0,0.00
2013-1-2,33.1,20.7,15.1,11.4,7.8,4.0,80,58,38,32.27,32.27,9,1,9,0.00
2013-1-3,34.7,24.1,13.5,16.5,11.2,5.5,80,59,40,32.27,32.27,17,5,17,0.00
2013-1-4,35.6,29.9,26.4,18.7,15.1,11.7,64,54,44,32.27,32.27,21,8,21,0.00
2013-1-5,43.7,33.3,25.2,21.2,17.1,14.1,69,52,35,32.27,32.27,15,6,15,0.00
2013-1-6,38.8,34.2,26.8,32.0,23.1,18.7,91,64,52,32.27,32.27,22,6,22,0.00
2013-1-7,42.3,31.7,26.8,23.0,20.2,16.7,79,64,38,32.27,32.27,10,4,10,0.00
2013-1-8,50.2,36.3,25.2,26.1,21.6,18.0,79,57,38,32.27,32.27,13,4,13,0.00
2013-1-9,51.8,43.8,35.8,40.2,29.1,19.3,84,56,43,32.27,32.27,20,7,20,0.00
2013-1-10,42.1,37.8,29.7,29.1,25.2,23.3,89,61,49,32.27,32.27,11,4,11,0.00
2013-1-11,62.1,52.0,41.9,52.1,43.0,25.1,91,73,50,32.27,32.27,20,6,20,0.00
2013-1-12,66.7,58.1,50.0,59.1,53.9,47.1,93,86,59,32.27,32.27,13,4,13,0.00
2013-1-13,64.4,59.1,39.7,59.8,52.2,37.6,94,78,63,32.27,27.08,24,8,24,0.00
2013-1-14,39.7,31.3,26.2,37.6,22.0,16.1,92,68,53,28.97,28.23,15,4,15,0.00
2013-1-15,32.2,28.3,23.7,20.2,17.8,15.4,80,65,52,0.00,40.00,11,4,11,0.00
2013-1-16,34.7,31.8,29.8,27.3,24.4,18.0,83,74,58,0.00,40.00,13,4,13,0.00
2013-1-17,39.4,33.1,27.9,25.7,21.4,13.0,72,62,47,0.00,40.00,15,4,15,0.00
2013-1-18,36.9,28.5,18.7,14.2,9.9,3.4,62,46,34,0.00,40.00,19,7,19,0.00
2013-1-19,55.8,45.0,33.1,28.2,16.6,13.3,81,33,20,32.27,40.00,24,11,24,0.00
2013-1-20,46.8,33.8,23.4,26.1,11.3,4.8,52,39,31,0.00,40.00,27,8,27,0.00
2013-1-21,27.7,20.2,9.5,12.0,3.5,-7.5,65,48,42,0.00,40.00,28,8,28,0.00
2013-1-22,18.0,10.8,5.9,-3.7,-8.9,-11.3,45,40,34,0.00,40.00,20,7,20,0.00
2013-1-23,20.7,14.6,8.6,11.5,-3.4,-13.4,79,46,34,0.00,40.00,13,5,13,0.00
2013-1-24,23.2,17.2,12.9,11.6,4.0,-1.9,81,57,38,0.00,40.00,17,3,17,0.00
2013-1-25,26.1,19.1,15.1,19.1,7.3,-0.7,86,60,46,0.00,40.00,12,4,12,0.00
2013-1-26,31.6,25.3,19.9,18.9,14.1,6.4,84,63,49,0.00,40.00,13,4,13,0.00
2013-1-27,38.7,26.6,14.7,27.8,12.0,6.1,85,55,39,0.00,40.00,10,4,10,0.00
2013-1-28,52.7,44.3,31.8,50.3,41.5,28.1,96,90,74,0.00,40.00,19,6,19,0.00
2013-1-29,70.9,60.6,52.5,51.2,47.9,42.1,93,66,38,0.00,40.00,22,9,22,0.00
2013-1-30,64.9,55.8,34.3,55.5,46.1,27.9,92,71,53,0.00,40.00,42,11,42,0.00
2013-1-31,34.3,26.6,20.3,28.2,13.8,4.7,84,59,42,0.00,40.00,33,12,33,0.00
2013-2-1,20.3,11.8,7.0,13.4,-0.9,-7.3,76,56,45,0.00,40.00,26,8,26,0.00
2013-2-2,28.6,19.3,8.2,23.4,9.1,-7.8,90,65,47,0.00,40.00,14,5,14,0.00
2013-2-3,25.5,22.2,19.9,21.7,13.6,4.8,87,70,50,0.00,40.00,18,6,18,0.00
2013-2-4,34.5,24.2,15.4,30.5,15.9,6.3,96,72,38,0.00,40.00,15,4,15,0.00
2013-2-5,33.4,30.7,27.9,30.9,25.0,16.8,97,80,55,0.00,40.00,13,3,13,0.00
2013-2-6,41.5,31.5,24.4,25.7,18.3,12.3,76,59,38,0.00,40.00,13,3,13,0.00
2013-2-7,52.9,38.0,25.3,27.2,21.4,14.1,74,53,30,0.00,40.00,10,4,10,0.00
2013-2-8,44.2,34.9,26.4,38.9,24.8,11.4,92,67,52,0.00,40.00,24,7,24,0.00
2013-2-9,40.8,29.3,21.2,14.7,11.4,9.5,65,48,30,0.00,40.00,13,2,13,0.00
2013-2-10,50.0,38.7,26.4,37.4,17.8,9.8,72,44,28,0.00,40.00,22,5,22,0.00
2013-2-11,56.3,47.4,38.7,44.3,31.0,20.7,85,56,30,0.00,40.00,29,11,29,0.00
2013-2-12,48.4,38.5,30.9,22.7,19.1,15.7,63,46,30,0.00,40.00,22,6,22,0.00
2013-2-13,38.1,32.0,27.5,29.1,23.5,15.4,91,72,41,0.00,40.00,10,2,10,0.00
2013-2-14,47.3,36.3,26.8,32.6,28.4,22.3,90,75,49,0.00,40.00,25,6,25,0.00
2013-2-15,39.2,33.2,25.2,31.1,25.6,19.2,90,74,56,0.00,40.00,13,3,13,0.00
2013-2-16,34.5,26.9,16.7,28.2,16.6,4.1,87,66,36,32.27,40.00,17,3,17,0.00
2013-2-17,29.1,18.3,10.4,10.6,1.6,-3.3,60,48,35,0.00,40.00,15,5,15,0.00
2013-2-18,54.7,35.5,15.6,24.4,12.8,1.0,56,40,27,0.00,40.00,18,6,18,0.00
2013-2-19,49.8,33.3,22.5,37.4,23.0,6.9,95,67,33,0.00,40.00,30,11,30,0.00
2013-2-20,23.4,20.7,17.1,14.6,6.4,1.8,74,53,43,0.00,40.00,25,8,25,0.00
2013-2-21,29.7,24.0,20.3,12.6,9.8,5.9,70,54,45,0.00,40.00,11,4,11,0.00
2013-2-22,42.6,34.1,25.5,39.3,28.5,11.2,95,80,54,0.00,40.00,15,4,15,0.00
2013-2-23,45.7,37.5,30.7,31.8,23.8,-99.9,84,60,38,0.00,40.00,14,0,14,0.00
2013-2-24,34.3,29.9,27.0,21.1,15.8,11.9,77,56,42,0.00,40.00,14,4,14,0.00
2013-2-25,46.4,34.7,24.6,19.2,14.9,-99.9,69,46,30,0.00,40.00,11,4,11,0.00
2013-2-26,43.3,38.0,33.1,41.8,29.8,15.0,95,75,43,0.00,40.00,15,8,15,0.00
2013-2-27,43.3,37.7,33.1,41.3,32.8,28.3,93,83,71,0.00,40.00,24,9,24,0.00
2013-2-28,35.8,33.5,31.3,33.1,29.9,26.5,95,87,78,0.00,40.00,19,7,19,0.00
2013-3-1,34.2,31.4,27.1,29.4,21.8,14.0,86,68,53,0.00,40.00,0,0,0,0.00
2013-3-2,30.7,26.8,25.2,20.8,17.0,-99.9,82,67,51,0.00,40.00,0,-4,0,0.00
2013-3-3,30.4,25.6,23.4,18.9,12.9,6.7,79,59,41,0.00,40.00,0,0,0,0.00
2013-3-4,43.3,31.1,21.0,15.5,11.4,7.3,66,45,29,0.00,40.00,13,2,13,0.00
2013-3-5,41.2,35.0,29.8,32.2,21.9,12.3,96,61,40,0.00,40.00,12,6,12,0.00
2013-3-6,41.2,34.5,31.6,32.3,29.4,25.3,98,83,60,0.00,40.00,12,2,12,0.00
2013-3-7,43.7,35.1,30.9,25.7,23.7,20.4,79,64,44,0.00,40.00,15,5,15,0.00
2013-3-8,48.7,36.7,27.0,27.1,20.9,15.7,79,55,31,0.00,40.00,8,2,8,0.00
2013-3-9,62.2,44.0,27.9,25.2,21.5,18.4,77,45,21,0.00,40.00,10,4,10,0.00
2013-3-10,76.1,59.8,47.8,28.6,21.8,14.9,40,24,13,0.00,40.00,17,5,17,0.00
2013-3-11,62.1,54.5,41.0,49.6,32.4,22.6,92,48,24,0.00,40.00,22,8,22,0.00
2013-3-12,41.2,36.4,33.3,33.0,26.5,21.0,92,68,52,0.00,40.00,19,7,19,0.00
2013-3-13,33.8,30.2,27.1,31.2,19.6,10.1,93,66,45,0.00,40.00,25,7,25,0.00
2013-3-14,44.4,31.8,22.3,16.2,12.5,9.0,68,46,30,0.00,40.00,18,6,18,0.00
2013-3-15,52.3,40.8,30.9,39.5,23.1,11.4,88,50,38,0.00,40.00,15,4,15,0.00
2013-3-16,58.1,44.1,33.3,46.6,37.7,26.4,95,79,53,0.00,40.00,22,5,22,0.00
2013-3-17,37.9,34.2,31.8,27.2,22.2,17.5,80,62,44,0.00,40.00,13,4,13,0.00
2013-3-18,52.3,41.0,31.8,49.2,37.6,19.8,97,88,56,0.00,40.00,23,5,23,0.00
2013-3-19,42.4,36.6,31.1,33.9,18.1,8.0,73,48,30,0.00,40.00,33,10,33,0.00
2013-3-20,41.9,32.0,22.8,15.9,10.0,3.7,48,40,30,0.00,40.00,24,8,24,0.00
2013-3-21,31.8,24.4,17.6,13.6,7.9,1.7,75,50,35,0.00,40.00,18,5,18,0.00
2013-3-22,45.9,31.8,20.5,15.4,10.9,7.7,67,43,28,0.00,40.00,17,5,17,0.00
2013-3-23,52.9,38.6,28.2,18.9,13.5,9.6,50,36,24,0.00,40.00,12,2,12,0.00
2013-3-24,36.7,33.3,30.9,31.7,21.9,13.2,96,65,39,0.00,40.00,13,6,13,0.00
2013-3-25,34.3,33.2,32.2,32.9,30.4,26.5,98,90,77,0.00,40.00,14,1,14,0.00
2013-3-26,42.8,35.4,31.6,30.4,24.6,15.8,91,67,40,0.00,40.00,15,3,15,0.00
2013-3-27,42.6,36.8,32.2,27.2,21.0,14.5,80,54,35,0.00,40.00,21,6,21,0.00
2013-3-28,50.9,39.4,28.8,20.6,18.2,14.7,64,44,29,0.00,40.00,17,5,17,0.00
2013-3-29,57.9,43.5,32.7,24.0,20.4,16.4,62,41,26,0.00,40.00,15,2,15,0.00
2013-3-30,62.8,48.4,35.2,26.2,18.7,12.5,54,33,16,0.00,40.00,13,2,13,0.00
2013-3-31,54.5,48.1,41.5,43.8,32.5,16.3,85,57,28,0.00,40.00,17,4,17,0.00
2013-4-1,49.8,41.5,33.8,35.3,19.2,6.4,82,43,25,0.00,40.00,19,7,19,0.00
2013-4-2,48.0,35.2,24.6,14.9,8.7,5.0,44,33,22,0.00,40.00,17,5,17,0.00
2013-4-3,50.0,37.4,27.3,14.1,7.3,2.8,36,28,19,0.00,40.00,16,4,16,0.00
2013-4-4,57.6,41.3,27.7,14.3,8.6,4.3,42,27,14,0.00,40.00,8,3,8,0.00
2013-4-5,63.0,48.1,35.8,25.3,17.0,11.6,43,29,19,0.00,40.00,13,3,13,0.00
2013-4-6,67.8,48.4,31.3,16.0,11.8,5.0,49,26,12,0.00,40.00,10,5,10,0.00
2013-4-7,73.6,63.8,54.7,40.7,29.9,7.8,46,29,14,0.00,40.00,26,9,26,0.00
2013-4-8,74.7,61.5,53.6,50.9,45.2,35.6,86,60,25,0.00,40.00,21,4,21,0.00